Weather History for EIKN - July, 2013

Change the Weather History Date:

Friday, July 5, 2013

  Actual Average Record
Temperature  
Mean Temperature 56 °F -  
Max Temperature 64 °F - - ()
Min Temperature 49 °F - - ()
Degree Days  
Heating Degree Days 9    
Growing Degree Days 6 (Base 50)    
Moisture  
Dew Point 52 °F    
Average Humidity 78    
Maximum Humidity 95    
Minimum Humidity 63    
Precipitation  
Precipitation 0.00 in - - ()
Sea Level Pressure  
Sea Level Pressure 30.32 in    
Wind  
Wind Speed 8 mph ()    
Max Wind Speed 15 mph    
Max Gust Speed -    
Visibility 7.2 miles    
Events      
T = Trace of Precipitation, MM = Missing Value Source: Averaged Metar Reports

Daily Weather History Graph

Daily Weather History Graph

Search for Another Location

Airport or City:

Trip Planner

Search our weather history database for the weather conditions in past years. The results will help you decide how hot, cold, wet, or windy it might be!

Date:

Astronomy

Jul. 05, 2013 Rise Set
Actual Time 5:11 AM IST 10:07 PM IST
Civil Twilight 4:18 AM IST 10:59 PM IST
Nautical Twilight 2:45 AM IST 12:31 AM IST
Astronomical Twilight Sun does not rise Sun does not rise
Moon 3:12 AM IST (7/5) 7:41 PM IST (7/5)
Length of Visible Light 18h 41m
Length of Day
16h 56m
Waning Crescent, 7% of the Moon is Illuminated
Jul 5
Waning Crescent
Jul 8
New
Jul 16
First Quarter
Jul 22
Full
Jul 29
Last Quarter

Hourly Weather History & Observations

Time (IST) Temp. Dew Point Humidity Pressure Visibility Wind Dir Wind Speed Gust Speed Precip Events Conditions
1:00 AM 52 °F 49 °F 88% 30.25 in - South 6.7 mph - -  
7:00 AM 51 °F 50 °F 95% 30.31 in 19 mi SSW 6.7 mph - -   Mostly Cloudy
7:00 AM 51.8 °F 50.0 °F 94% 30.30 in 6.2 mi SSW 5.8 mph - N/A   Mostly Cloudy
7:30 AM 51.8 °F 50.0 °F 94% 30.30 in 6.2 mi SSW 5.8 mph - N/A   Mostly Cloudy
8:00 AM 53.6 °F 51.8 °F 94% 30.30 in 6.2 mi SW 6.9 mph - N/A   Mostly Cloudy
8:30 AM 55.4 °F 51.8 °F 88% 30.30 in 6.2 mi SW 8.1 mph - N/A   Mostly Cloudy
9:00 AM 55.4 °F 51.8 °F 88% 30.30 in 6.2 mi SW 10.4 mph - N/A   Mostly Cloudy
9:30 AM 57.2 °F 51.8 °F 82% 30.33 in 6.2 mi SSW 9.2 mph - N/A   Mostly Cloudy
10:00 AM 57.2 °F 51.8 °F 82% 30.33 in 6.2 mi SW 9.2 mph - N/A   Mostly Cloudy
10:30 AM 59.0 °F 51.8 °F 77% 30.33 in 6.2 mi SSW 10.4 mph - N/A   Mostly Cloudy
11:00 AM 59.0 °F 51.8 °F 77% 30.33 in 6.2 mi South 10.4 mph - N/A   Mostly Cloudy
11:30 AM 60.8 °F 51.8 °F 72% 30.33 in 6.2 mi SSW 11.5 mph - N/A   Mostly Cloudy
12:00 PM 60.8 °F 51.8 °F 72% 30.33 in 6.2 mi SSW 15.0 mph - N/A   Mostly Cloudy
12:30 PM 62.6 °F 53.6 °F 72% 30.33 in 6.2 mi SSW 12.7 mph - N/A   Mostly Cloudy
1:00 PM 63 °F 54 °F 63% 30.35 in 19 mi SSW 11.2 mph - -   Mostly Cloudy
1:00 PM 62.6 °F 53.6 °F 72% 30.33 in 6.2 mi SSW 11.5 mph - N/A   Mostly Cloudy
1:30 PM 62.6 °F 53.6 °F 72% 30.33 in 6.2 mi SSW 11.5 mph - N/A   Scattered Clouds
2:00 PM 62.6 °F 53.6 °F 72% 30.33 in 6.2 mi SSW 11.5 mph - N/A   Mostly Cloudy
2:30 PM 62.6 °F 53.6 °F 72% 30.33 in 6.2 mi SSW 11.5 mph - N/A   Scattered Clouds
3:00 PM 62.6 °F 53.6 °F 72% 30.33 in 6.2 mi South 13.8 mph - N/A   Scattered Clouds
3:30 PM 60.8 °F 53.6 °F 77% 30.33 in 6.2 mi SSW 12.7 mph - N/A   Mostly Cloudy
4:00 PM 60.8 °F 51.8 °F 72% 30.33 in 6.2 mi SSW 11.5 mph - N/A   Mostly Cloudy
4:30 PM 62.6 °F 51.8 °F 68% 30.33 in 6.2 mi SSW 12.7 mph - N/A   Mostly Cloudy
5:00 PM 60.8 °F 51.8 °F 72% 30.33 in 6.2 mi SSW 10.4 mph - N/A   Mostly Cloudy
5:30 PM 60.8 °F 51.8 °F 72% 30.33 in 6.2 mi SSW 10.4 mph - N/A   Mostly Cloudy
6:00 PM 60.8 °F 53.6 °F 77% 30.33 in 6.2 mi SSW 10.4 mph - N/A   Mostly Cloudy
7:00 PM 62 °F 54 °F 66% 30.33 in 31 mi SSW 8.9 mph - -   Mostly Cloudy